Location: Chena
(64.8152°N, 147.9227°W)
Time: 06:42:38
(UTC+00:00)

N. Korean satellite - Pass Details

Date: 23 January 2021
Orbit: 451 x 502 km, 97.2° (Epoch: 08 March)

Event Time Altitude Azimuth Distance (km) Brightness Sun altitude
Rises 14:56:58 0° 20° (NNE) 2,551 10.6 -24.5°
Reaches altitude 10° 14:59:14 10° 31° (NNE) 1,657 9.7 -24.2°
Maximum altitude 15:02:26 30° 95° (E) 864 8.4 -23.9°
Drops below altitude 10° 15:05:33 10° 159° (SSE) 1,621 9.4 -23.6°
Sets 15:07:44 0° 170° (S) 2,484 10.2 -23.3°
